Location: Gloden
(48.4833°N, 15.3167°E)
Time: 03:41:31
(UTC+00:00)

Cosmos 2297 Rocket - Pass Details

Date: 15 December 2019
Orbit: 838 x 845 km, 71.0° (Epoch: 17 January)

Event Time Altitude Azimuth Distance (km) Brightness Sun altitude
Exits shadow 04:10:37 11° 353° (N) 2,417 4.4 -24.1°
Drops below altitude 10° 04:10:59 10° 356° (N) 2,471 4.5 -24.1°
Sets 04:15:02 0° 25° (NNE) 3,410 5.5 -23.4°
